Weather in Topeka

United States     39°00′59″N   95°42′17″W
temp.,
°C
wind,
m/s
gust,
m/s
humid.,
%
clouds,
%
prec.,
mm/h
press.,
hPa
HPBL,
m
25 may, wed
wed2501:00+15sse4997100 0.9 1007412
04:00+14se3798100 0.0 1005259
07:00+14sse2397100 0.1 1006155
10:00+16nne2398100 2.1 1005157
13:00+13n81398100 8.1 1002428
16:00+12n71296100 13.6 1002495
19:00+11nw2597100 16.7 1003484
22:00+11nnw2498100 0.1 1004305
26 may, thu
thu2601:00+12e249894 0.1 1004183
04:00+12nnw2397100 0.0 1004130
07:00+11n4798100 0.1 1006342
10:00+11nnw6995100 0.0 1008543
13:00+17nnw787697 0.1 10081148
16:00+13nw8118598 0.1 1010729
19:00+15nnw7108085 0.2 1010979
22:00+12nnw47905 0.0 1012126
27 may, fri
fri2701:00+10nw46930 0.0 101388
04:00+9nw46930 0.0 1014107
07:00+10nw48910 0.0 1015178
10:00+17nnw46690 0.0 1015507
13:00+22nnw34570 0.0 1014881
16:00+24ene11520 0.0 10131087
19:00+23se34676 0.0 1011143
22:00+17sse49828 0.0 1011135
28 may, sat
sat2801:00+15se511881 0.0 1011199
04:00+15sse6149194 0.0 1009266
07:00+16sse6158699 0.0 1009397
10:00+21sse9177032 0.0 1007794
13:00+25s10126616 0.0 10041136
16:00+28s9126631 0.0 10021390
19:00+27s81377100 0.0 1000980
22:00+25s81784100 0.0 1000750
29 may, sun
sun2901:00+24s11217195 0.0 998828
04:00+23s11236797 0.0 996804
07:00+23ssw122460100 0.0 996688
10:00+25ssw122265100 0.0 997705
13:00+28ssw12196399 0.0 997787
16:00+30ssw12196695 0.0 9981011
19:00+27s122176100 0.0 999797
22:00+25s1324661 0.0 1001736